Location: Roland
(31.1349°N, 85.4372°W)
Time: 01:25:15
(UTC+00:00)

S-56A Canister/Altair - Pass Details

Date: 25 April 2021
Orbit: 632 x 2500 km, 38.9° (Epoch: 06 May)

Event Time Altitude Azimuth Distance (km) Brightness Sun altitude
Rises 05:10:02 0° 275° (W) 4,892 11.8 -45.0°
Reaches altitude 10° 05:13:58 10° 281° (W) 3,584 11.0 -45.2°
Enters shadow 05:16:13 18° 287° (WNW) 2,835 10.5 -45.2°
